This is the latest recevied weather packets stored in our database for station/object KE8DDT-7. If no packets are shown the sender has not sent any weather packets the latest 10 day(s).
| Time | Temp. | Humidity | Pressure | Rain* | Wind** | Luminosity | Snow |
|---|---|---|---|---|---|---|---|
| 1777898655 | 11.67° C | 71% | 997.2 hPa | 0 mm | - | 374 W/m² | - |
| 1777898334 | 11.67° C | 73% | 997.2 hPa | 0 mm | - | 353 W/m² | - |
| 1777898034 | 11.11° C | 74% | 997.2 hPa | 0 mm | - | 336 W/m² | - |
| 1777897734 | 11.11° C | 74% | 997.2 hPa | 0 mm | - | 322 W/m² | - |
| 1777897434 | 10.56° C | 75% | 997.1 hPa | 0 mm | - | 306 W/m² | - |
| 1777897134 | 10° C | 76% | 997.1 hPa | 0 mm | - | 287 W/m² | - |
| 1777896834 | 9.44° C | 77% | 997.3 hPa | 0 mm | - | 267 W/m² | - |
| 1777896217 | 8.89° C | 79% | 997.2 hPa | 0 mm | - | 62 W/m² | - |
| 1777895917 | 8.89° C | 79% | 997.3 hPa | 0 mm | - | 51 W/m² | - |
| 1777895618 | 8.33° C | 80% | 997.2 hPa | 0 mm | - | 47 W/m² | - |
| 1777895317 | 8.33° C | 80% | 997.3 hPa | 0 mm | - | 46 W/m² | - |
| 1777895018 | 8.33° C | 80% | 997.3 hPa | 0 mm | - | 46 W/m² | - |
| 1777894717 | 7.78° C | 80% | 997.3 hPa | 0 mm | - | 44 W/m² | - |
| 1777894418 | 7.78° C | 80% | 997.2 hPa | 0 mm | - | 42 W/m² | - |
| 1777894117 | 7.78° C | 80% | 997.1 hPa | 0 mm | - | 39 W/m² | - |
| 1777893818 | 7.78° C | 80% | 997.1 hPa | 0 mm | - | 37 W/m² | - |
| 1777893517 | 7.78° C | 80% | 997.1 hPa | 0 mm | - | 35 W/m² | - |
| 1777892958 | 7.78° C | 80% | 997 hPa | 0 mm | - | 26 W/m² | - |
| 1777892658 | 7.78° C | 80% | 997.1 hPa | 0 mm | - | 26 W/m² | - |
| 1777892191 | 7.22° C | 80% | 997.1 hPa | 0 mm | - | 28 W/m² | - |
| 1777891893 | 7.22° C | 80% | 997 hPa | 0 mm | - | 25 W/m² | - |
| 1777891593 | 7.22° C | 80% | 997 hPa | 0 mm | - | 19 W/m² | - |
| 1777891304 | 7.22° C | 80% | 997 hPa | 0 mm | - | 14 W/m² | - |
| 1777890991 | 7.22° C | 80% | 997 hPa | 0 mm | - | 11 W/m² | - |
| 1777890694 | 7.22° C | 79% | 997 hPa | 0 mm | - | 7 W/m² | - |
* Rain latest hour (hover to see other rain measurements)
** Current wind speed in m/s (hover to see current wind gust speed)